Hourly Data Report for September 06, 2021

WINNIPEG THE FORKS
MANITOBA
Current Station Operator: ECCC - MSC

49°53'18.008" N
97°07'46.007" W
230.00 m
5023262
71579
XWN

Download Data

Hourly Data (September 2021)
Hourly Data Report for September 6, 2021
TIME
LST
Temp Definition
°C
Dew Point Definition
°C
Rel Hum Definition
%
Precip. Amount Definition
mm

Wind Dir Definition
10's deg

Wind Spd Definition
km/h
Visibility Definition
km
Stn Press Definition
kPa
Hmdx Definition


Wind Chill Definition


Weather Definition


00:00 14.1 9.1 72 0.0 8 2   98.32     LegendNANA
01:00 14.3 9.1 71 0.0 33 1   98.30     LegendNANA
02:00 13.4 8.9 74 0.0 22 3   98.24     LegendNANA
03:00 13.5 8.3 71 0.0 31 3   98.18     LegendNANA
04:00 13.9 7.8 67 0.0 19 3   98.11     LegendNANA
05:00 13.7 7.8 68 0.0 26 3   97.97     LegendNANA
06:00 14.4 8.1 66 0.0 27 3   97.85     LegendNANA
07:00 14.5 8.6 68 0.0 24 4   97.81     LegendNANA
08:00 16.3 9.7 65 0.0 19 6   97.72     LegendNANA
09:00 17.9 10.4 61 0.0 20 8   97.70     LegendNANA
10:00 19.3 10.5 57 0.0 20 9   97.60     LegendNANA
11:00 21.3 10.9 51 0.0 20 11   97.52     LegendNANA
12:00 23.6 11.4 46 0.0 22 10   97.47 26   LegendNANA
13:00 26.0 10.0 37 0.0 25 9   97.45 27   LegendNANA
14:00 22.0 10.3 47 0.0 31 8   97.53     LegendNANA
15:00 21.2 11.0 52 0.0 25 4   97.61     LegendNANA
16:00 20.7 11.1 54 0.0 28 8   97.62     LegendNANA
17:00 20.0 11.0 56 0.0 28 6   97.61     LegendNANA
18:00 19.9 11.5 58 0.0 30 6   97.61     LegendNANA
19:00 19.4 11.5 60 0.0 30 4   97.65     LegendNANA
20:00 18.2 11.3 64 0.0 29 5   97.74     LegendNANA
21:00 17.9 11.8 67 0.0 28 5   97.74     LegendNANA
22:00 18.0 11.1 64 0.0 28 5   97.74     LegendNANA
23:00 17.6 10.5 63 0.0 29 4   97.73     LegendNANA

Notes on Data Quality.

Legend

  • E = Estimated
  • M = Missing
  • NA = Not Available*
  • [empty] = Indicates an unobserved value
Date modified: